Location: Newark
(42.9277°N, 71.8621°W)
Time: 07:19:14
(UTC+00:00)

Altair - All Passes

Search period start: 26 May 2020 00:00
Search period end: 05 June 2020 00:00
Orbit: 1501 x 1683 km, 47.2° (Epoch: 25 May)

Date Brightness Start Highest point End Pass type
(mag) Time Alt. Az. Time Alt. Az. Time Alt. Az.
26 May - 02:46:13 10° SSW 02:55:06 38° SE 03:04:08 10° ENE visible
26 May - 04:49:07 10° WSW 04:59:15 87° SSE 05:09:29 10° ENE visible
26 May - 06:54:34 10° W 07:04:45 69° N 07:14:52 10° E visible
26 May - 09:00:03 10° WNW 09:10:19 89° NNE 09:20:19 10° ESE daylight
26 May - 11:05:23 10° WNW 11:14:35 42° SW 11:23:31 10° SSE daylight
27 May - 02:21:21 10° SSW 02:30:00 35° SE 02:38:48 10° ENE visible
27 May - 04:23:56 10° WSW 04:34:01 84° SSE 04:44:15 10° ENE visible
27 May - 06:29:18 10° W 06:39:27 70° N 06:49:36 10° E visible
27 May - 08:34:49 10° WNW 08:45:05 86° NNE 08:55:07 10° ESE visible
27 May - 10:40:05 10° WNW 10:49:28 45° SW 10:58:36 10° SSE daylight
27 May - 12:50:13 10° WSW 12:52:12 11° WSW 12:54:11 10° SW daylight
28 May - 01:56:32 10° S 02:04:54 32° SE 02:13:27 10° ENE visible
28 May - 03:58:46 10° WSW 04:08:48 80° SSE 04:19:01 10° ENE visible
28 May - 06:04:01 10° W 06:14:10 70° N 06:24:20 10° E visible
28 May - 08:09:34 10° WNW 08:19:50 83° NNE 08:29:55 10° ESE visible
28 May - 10:14:48 10° WNW 10:24:21 49° SW 10:33:38 10° SSE daylight
28 May - 12:23:29 10° W 12:27:12 13° WSW 12:30:53 10° SW daylight
29 May - 01:31:45 10° S 01:39:50 30° SE 01:48:03 10° ENE visible
29 May - 03:33:38 10° SW 03:43:36 77° SSE 03:53:47 10° ENE visible
29 May - 05:38:44 10° W 05:48:53 71° N 05:59:04 10° ENE visible
29 May - 07:44:19 10° WNW 07:54:35 81° NNE 08:04:41 10° ESE visible
29 May - 09:49:31 10° WNW 09:59:13 52° SW 10:08:39 10° SSE daylight
29 May - 11:57:23 10° W 12:02:11 15° WSW 12:06:56 10° SSW daylight
30 May - 01:07:01 10° S 01:14:46 27° SE 01:22:39 10° ENE visible
30 May - 03:08:30 10° SW 03:18:24 73° SSE 03:28:32 10° ENE visible
30 May - 05:13:29 10° W 05:23:36 72° N 05:33:48 10° ENE visible
30 May - 07:19:04 10° WNW 07:29:19 79° NNE 07:39:27 10° ESE visible
30 May - 09:24:15 10° WNW 09:34:04 56° SW 09:43:38 10° SE daylight
30 May - 11:31:33 10° W 11:37:10 17° WSW 11:42:43 10° SSW daylight
31 May - 00:42:21 10° S 00:49:42 24° SE 00:57:12 10° ENE visible
31 May - 02:43:24 10° SW 02:53:13 69° SSE 03:03:18 10° ENE visible
31 May - 04:48:13 10° W 04:58:19 73° N 05:08:32 10° ENE visible
31 May - 06:53:49 10° WNW 07:04:03 77° NNE 07:14:12 10° ESE visible
31 May - 08:59:00 10° WNW 09:08:55 60° SW 09:18:36 10° SE daylight
31 May - 11:05:51 10° W 11:12:08 19° SW 11:18:20 10° SSW daylight
01 Jun - 00:17:45 10° S 00:24:39 22° SE 00:31:42 10° E daylight
01 Jun - 02:18:19 10° SW 02:28:03 65° SE 02:38:04 10° ENE visible
01 Jun - 04:22:57 10° W 04:33:02 74° NNW 04:43:16 10° ENE visible
01 Jun - 06:28:35 10° WNW 06:38:47 75° NNE 06:48:57 10° E visible
01 Jun - 08:33:45 10° WNW 08:43:45 63° SW 08:53:32 10° SE visible
01 Jun - 10:40:15 10° W 10:47:06 21° SW 10:53:51 10° S daylight
01 Jun - 23:53:13 10° SSE 23:59:37 20° SE 00:06:08 10° E daylight
02 Jun - 01:53:15 10° SW 02:02:53 62° SE 02:12:49 10° ENE visible
02 Jun - 03:57:42 10° W 04:07:46 76° NNW 04:18:01 10° ENE visible
02 Jun - 06:03:20 10° WNW 06:13:31 74° N 06:23:41 10° E visible
02 Jun - 08:08:31 10° WNW 08:18:34 67° SW 08:28:27 10° SE visible
02 Jun - 10:14:43 10° W 10:22:02 23° SW 10:29:17 10° S daylight
02 Jun - 23:28:47 10° SSE 23:34:36 18° ESE 23:40:29 10° E daylight
03 Jun - 01:28:12 10° SW 01:37:44 58° SE 01:47:34 10° ENE visible
03 Jun - 03:32:28 10° WSW 03:42:31 78° NNW 03:52:45 10° ENE visible
03 Jun - 05:38:04 10° WNW 05:48:14 72° N 05:58:25 10° E visible
03 Jun - 07:43:16 10° WNW 07:53:23 71° SSW 08:03:22 10° SE visible
03 Jun - 09:49:15 10° WNW 09:57:00 26° SW 10:04:37 10° S daylight
03 Jun - 23:04:30 10° SSE 23:09:35 15° ESE 23:14:43 10° E daylight
04 Jun - 01:03:11 10° SW 01:12:35 54° SE 01:22:18 10° ENE visible
04 Jun - 03:07:14 10° WSW 03:17:15 80° NNW 03:27:30 10° ENE visible
04 Jun - 05:12:49 10° WNW 05:22:58 71° N 05:33:08 10° E visible
04 Jun - 07:18:02 10° WNW 07:28:12 75° SSW 07:38:13 10° SE visible
04 Jun - 09:23:49 10° WNW 09:31:56 28° SW 09:39:55 10° S daylight
04 Jun - 22:40:24 10° SSE 22:44:34 13° ESE 22:48:47 10° E daylight
